Regional Weather Roundup
Issued by NWS Northern Indiana

Home | Current Version | Previous Version | Graphics & Text | Print | Product List | Glossary On
Versions: 1 2 3 4 5 6 7 8 9 10 11 12 13 14 15 16 17 18 19 20 21 22 23 24 25 26 27 28 29 30 31 32 33 34 35 36 37 38 39 40 41 42 43 44 45 46 47 48 49 50
000
ASUS43 KIWX 051900
RWRIWX

KIWX WEATHER ROUNDUP
NATIONAL WEATHER SERVICE NORTHERN INDIANA
300 PM EDT THU MAY 05 2016

NOTE: "FAIR" INDICATES FEW OR NO CLOUDS BELOW 12,000 FEET WITH NO
SIGNIFICANT WEATHER AND/OR OBSTRUCTIONS TO VISIBILITY.

* THESE STATIONS ARE NOT UNDER NWS QUALITY CONTROL. THEY ALSO MAY NOT
  REPORT WEATHER SUCH AS PRECIPITATION OR FOG.

INZ001>027-052000-
NORTHERN INDIANA

CITY           SKY/WX    TMP DP  RH WIND       PRES   REMARKS
GARY*          MOSUNNY   50  46  87 N9G21     30.03S
SOUTH BEND     SUNNY     55  45  68 NW16      29.96S
GOSHEN         MOSUNNY   63  46  54 N13       29.91S
ANGOLA*          N/A     64  43  45 N12       29.88S
FORT WAYNE     PTSUNNY   64  47  53 N14       29.88S
PERU/GRISSOM   MOSUNNY   62  47  57 N13       29.90S

$$
INZ028>050-052000-
CENTRAL INDIANA

CITY           SKY/WX    TMP DP  RH WIND       PRES   REMARKS
LAFAYETTE      MOSUNNY   61  46  57 N10G20    29.94F
KOKOMO*        PTSUNNY   63  48  59 N15G23    29.90F
MUNCIE*        PTSUNNY   63  45  51 NE15      29.88S
INDIANAPOLIS   PTSUNNY   57  45  64 N13G22    29.91F

$$
MIZ043>046-050>051-056>058-064>065-071>073-077>080-052000-
SOUTHWEST LOWER MICHIGAN

CITY           SKY/WX    TMP DP  RH WIND       PRES   REMARKS
BATTLE CREEK   PTSUNNY   64  42  44 N14G22    29.91S
BENTON HARBOR  SUNNY     49  42  77 NW9       29.98S
COLDWATER*     MOSUNNY   64  44  48 N16       29.90S
HILLSDALE*     PTSUNNY   63  35  35 N12G21    29.88S
HOLLAND        SUNNY    N/A N/A N/A W12       29.97S
GRAND RAPIDS   MOSUNNY   66  42  41 NE9       29.93S
KALAMAZOO      MOSUNNY   64  45  49 N13G22    29.92F
STURGIS*       CLOUDY    63  45  52 N12       29.89S
THREE RIVERS*  FAIR      65  44  45 N8G18     29.91F

$$
OHZ001>008-015>018-024>025-052000-
NORTHWEST OHIO

CITY           SKY/WX    TMP DP  RH WIND       PRES   REMARKS
DEFIANCE       PTSUNNY   67  42  40 N12       29.86S
FINDLAY        MOSUNNY   63  41  44 N21G28    29.83S
TOLEDO EXPRESS PTSUNNY   65  39  38 NE12      29.84S
TOLEDO METCALF SUNNY     64  41  42 NE14G22   29.85S
LIMA           MOSUNNY   61  49  64 NE14G26   29.84S

$$
AND FOR LAKE MICHIGAN COASTAL AND OPEN LAKE BUOY OBSERVATIONS

STATION/POSITION TEMP    WIND        PRES    VSBY  WAVE
                 AIR SEA DIR/SP/G                  HT/PER
                 (F)     (DEG/KT/KT) (MB)    (MI)  (FT/S)
CALUMET HARBOR    47                 1016.2F
MICHIGAN CITY     42     310/ 11/ 12   N/A
BURNS HARBOR      42     350/ 11/ 15 1016.9F
SAINT JOSEPH      45     320/ 10/ 12 1015.9R
SOUTH LAKE BUOY   40 40  360/ 14/ 17 1016.1          4/ 6
4 MI NW BRIDGMAN  42 47                N/A           4/ 6

$$
&&




USA.gov is the U.S. government's official web portal to all federal, state and local government web resources and services.